EW2692 Weather Reports


Display with metric or nautical units.
time (UTC)temp
F
wind
direction
speed
MPH
gust
MPH
rain 1hr
in
rain 24hr
in
rain mn
in
humidity
%
barometer
mb
20220117230040 34 208 0.0 0.0 0.00 0.00 0.00 81 1003.6
20220117224545 36 208 0.0 0.0 0.00 0.00 0.00 79 1003.7
20220117223038 36 209 0.0 0.0 0.00 0.00 0.00 78 1004.2
20220117221535 37 209 0.0 0.0 0.00 0.00 0.00 76 1004.5
20220117220030 38 209 0.0 0.0 0.00 0.00 0.00 75 1004.5
20220117214546 39 209 0.0 0.0 0.00 0.00 0.00 74 1004.7
20220117213103 40 209 0.0 0.0 0.00 0.00 0.00 73 1005.0
20220117211550 39 209 0.0 0.0 0.00 0.00 0.00 73 1005.0
20220117210021 39 209 0.0 3.0 0.00 0.00 0.00 73 1005.2
20220117204517 39 209 0.0 3.0 0.00 0.00 0.00 74 1005.3
20220117203036 38 207 0.0 5.0 0.00 0.00 0.00 75 1005.4
20220117201507 37 225 0.0 0.0 0.00 0.00 0.00 77 1005.4
20220117200004 35 226 0.0 0.0 0.00 0.00 0.00 79 1005.7
20220117194503 35 227 0.0 0.0 0.00 0.00 0.00 78 1005.6
20220117193003 35 227 0.0 0.0 0.00 0.00 0.00 77 1005.9
20220117191750 34 227 0.0 0.0 0.00 0.00 0.00 80 1006.9
20220117190127 33 227 0.0 0.0 0.00 0.00 0.00 81 1006.8
20220117184642 32 227 0.0 0.0 0.00 0.00 0.00 81 1007.4
20220117183117 32 227 0.0 0.0 0.00 0.00 0.00 82 1007.4
20220117181615 30 227 0.0 0.0 0.00 0.00 0.00 85 1007.9
20220117180135 30 227 0.0 6.0 0.00 0.00 0.00 85 1008.1
20220117174633 30 200 0.0 3.0 0.00 0.00 0.00 86 1008.0
20220117173111 29 198 0.0 0.0 0.00 0.00 0.00 90 1008.1
20220117171618 27 198 0.0 0.0 0.00 0.00 0.00 92 1008.3
20220117170048 25 198 0.0 0.0 0.00 0.00 0.00 92 1008.4
20220117164628 24 198 0.0 0.0 0.00 0.00 0.00 93 1007.9
20220117163211 23 198 0.0 0.0 0.00 0.00 0.00 93 1007.9
20220117161546 23 198 0.0 0.0 0.00 0.00 0.00 94 1008.1
20220117160108 20 198 0.0 0.0 0.00 0.00 0.00 92 1008.1
20220117154549 21 198 0.0 0.0 0.00 0.00 0.00 93 1008.0
20220117153045 21 198 0.0 0.0 0.00 0.00 0.00 93 1007.9
20220117151557 21 198 0.0 0.0 0.00 0.00 0.00 93 1008.0
20220117150056 20 198 0.0 0.0 0.00 0.00 0.00 93 1008.0
20220117144556 20 198 0.0 0.0 0.00 0.00 0.00 92 1007.9
20220117143052 21 198 0.0 0.0 0.00 0.00 0.00 93 1007.6
20220117141609 20 198 0.0 0.0 0.00 0.00 0.00 93 1007.7
20220117140041 19 198 0.0 0.0 0.00 0.00 0.00 92 1007.7
20220117134556 19 198 0.0 0.0 0.00 0.00 0.00 92 1007.6
20220117133106 20 198 0.0 0.0 0.00 0.00 0.00 92 1007.5
20220117131611 20 198 0.0 0.0 0.00 0.00 0.00 92 1007.4
20220117130109 21 198 0.0 0.0 0.00 0.00 0.00 92 1007.6
20220117124558 22 198 0.0 0.0 0.00 0.00 0.00 91 1007.3
20220117123043 23 198 0.0 0.0 0.00 0.00 0.00 92 1007.7
20220117121556 23 198 0.0 0.0 0.00 0.00 0.00 92 1007.6
20220117120017 23 198 0.0 0.0 0.00 0.00 0.00 91 1007.6
20220117114604 24 198 0.0 0.0 0.00 0.00 0.00 91 1007.6
20220117113010 25 198 0.0 0.0 0.00 0.00 0.00 91 1007.4
20220117111514 26 198 0.0 0.0 0.00 0.00 0.00 91 1007.4
20220117110006 26 198 0.0 0.0 0.00 0.00 0.00 91 1007.5
20220117104504 27 198 0.0 0.0 0.00 0.00 0.00 91 1007.7
20220117103029 27 198 0.0 0.0 0.00 0.00 0.00 91 1007.7
20220117101502 28 198 0.0 0.0 0.00 0.00 0.00 91 1007.6
20220117100147 28 198 0.0 0.0 0.00 0.00 0.00 91 1007.8
20220117094738 28 198 0.0 0.0 0.00 0.00 0.00 90 1008.0
20220117093154 28 198 0.0 0.0 0.00 0.00 0.00 90 1007.8
20220117091801 29 198 0.0 0.0 0.00 0.00 0.00 91 1007.9
20220117090300 28 198 0.0 0.0 0.00 0.00 0.00 91 1008.2
20220117084622 28 198 0.0 0.0 0.00 0.00 0.00 91 1008.2
20220117083129 28 199 0.0 0.0 0.00 0.00 0.00 90 1008.4
20220117081615 28 199 0.0 0.0 0.00 0.00 0.00 90 1008.5
20220117080116 28 198 0.0 2.0 0.00 0.00 0.00 90 1008.6
20220117074618 28 199 0.0 0.0 0.00 0.00 0.00 91 1008.8
20220117073304 28 198 0.0 0.0 0.00 0.00 0.00 91 1009.2
20220117071609 27 198 0.0 0.0 0.00 0.00 0.00 91 1009.7
20220117070122 27 198 0.0 0.0 0.00 0.00 0.00 90 1009.9
20220117064539 27 198 0.0 0.0 0.00 0.00 0.00 89 1010.2
20220117063115 28 198 0.0 0.0 0.00 0.00 0.00 90 1010.3
20220117061601 27 198 0.0 0.0 0.00 0.00 0.00 90 1010.3
20220117060048 27 198 0.0 0.0 0.00 0.00 0.00 90 1010.8
20220117054623 27 198 0.0 0.0 0.00 0.00 0.00 90 1011.1
20220117053042 26 200 0.0 0.0 0.00 0.00 0.00 90 1011.4
20220117051600 25 200 0.0 0.0 0.00 0.00 0.00 90 1011.8
20220117050055 24 207 0.0 0.0 0.00 0.00 0.00 91 1012.0
20220117044528 24 213 0.0 0.0 0.00 0.00 0.00 90 1012.1
20220117043021 24 213 0.0 0.0 0.00 0.00 0.00 90 1012.3
20220117041542 23 250 0.0 0.0 0.00 0.00 0.00 90 1012.7
20220117040034 23 250 0.0 0.0 0.00 0.00 0.00 90 1012.9
20220117034535 22 250 0.0 0.0 0.00 0.00 0.00 88 1012.9
20220117033021 22 250 0.0 0.0 0.00 0.00 0.00 87 1013.1
20220117031540 23 250 0.0 0.0 0.00 0.00 0.00 87 1013.3
20220117030008 23 250 0.0 0.0 0.00 0.00 0.00 88 1013.6
20220117024512 23 250 0.0 0.0 0.00 0.00 0.00 89 1013.9
20220117023008 23 250 0.0 0.0 0.00 0.00 0.00 87 1014.3
20220117021512 24 250 0.0 0.0 0.00 0.00 0.00 87 1014.6
20220117020003 25 250 0.0 0.0 0.00 0.00 0.00 85 1014.7
20220117014629 26 250 0.0 0.0 0.00 0.00 0.00 86 1014.7
20220117013102 26 250 0.0 0.0 0.00 0.00 0.00 87 1014.7
20220117011716 26 250 0.0 0.0 0.00 0.00 0.00 88 1015.0
20220117010104 26 250 0.0 0.0 0.00 0.00 0.00 87 1015.0
20220117004622 27 250 0.0 0.0 0.00 0.00 0.00 85 1015.0
20220117003108 28 250 0.0 0.0 0.00 0.00 0.00 85 1015.0
20220117001631 29 250 0.0 4.0 0.00 0.00 0.00 85 1015.3
20220117000109 29 252 3.0 7.0 0.00 0.00 0.00 85 1015.2
20220116234624 29 251 2.0 5.0 0.00 0.00 0.00 84 1015.7
20220116233112 30 252 3.0 9.0 0.00 0.00 0.00 84 1016.0
20220116231626 31 253 4.0 8.0 0.00 0.00 0.00 83 1016.1